QPF
0.00 0.00 0.00 0.00 0.00 0.00 0.01 0.01 0.01 0.02 0.02 0.02 0.02 0.02 0.02 0.02 0.03 0.03 0.05 0.09 0.08 0.06 0.03 0.02 0.02 0.01 0.01 0.01 0.01 0.02 0.02 0.03 0.04 0.05 0.05 0.06 0.06 0.06 0.06 0.05 0.04 0.03 0.03 0.02
0.00 0.00 0.00 0.00 0.00 0.00 0.00 0.00 0.01 0.01 0.04 0.04 0.02 0.02 0.03 0.03 0.03 0.03 0.04 0.04 0.04 0.04 0.03 0.02 0.02 0.02 0.02 0.03 0.04 0.05 0.07 0.08 0.08 0.08 0.08 0.08 0.08 0.07 0.06 0.05 0.04 0.02 0.01 0.01
0.00 0.00 0.00 0.00 0.00 0.00 0.00 0.00 0.00 0.01 0.02 0.03 0.03 0.02 0.02 0.02 0.02 0.02 0.02 0.02 0.02 0.02 0.01 0.02 0.02 0.03 0.04 0.05 0.08 0.09 0.11 0.12 0.12 0.11 0.10 0.09 0.08 0.07 0.06 0.04 0.02 0.01 0.01 0.00
0.00 0.00 0.00 0.01 0.01 0.00 0.00 0.01 0.01 0.01 0.01 0.02 0.01 0.01 0.00 0.00 0.00 0.00 0.00 0.01 0.01 0.01 0.02 0.02 0.03 0.05 0.06 0.08 0.11 0.13 0.14 0.15 0.14 0.12 0.09 0.08 0.07 0.05 0.03 0.02 0.01 0.00 0.00 0.00
0.01 0.00 0.01 0.02 0.01 0.01 0.01 0.02 0.01 0.01 0.01 0.01 0.01 0.00 0.00 0.00 0.00 0.00 0.00 0.00 0.01 0.01 0.02 0.03 0.05 0.07 0.09 0.11 0.13 0.14 0.13 0.11 0.08 0.07 0.06 0.04 0.03 0.02 0.01 0.01 0.01 0.00 0.00 0.00
0.02 0.02 0.03 0.04 0.01 0.01 0.02 0.04 0.01 0.01 0.01 0.01 0.01 0.00 0.00 0.00 0.00 0.00 0.00 0.00 0.01 0.01 0.03 0.04 0.06 0.07 0.08 0.10 0.09 0.08 0.07 0.05 0.04 0.03 0.03 0.02 0.01 0.01 0.01 0.01 0.00 0.00 0.00 0.00
0.04 0.03 0.05 0.03 0.01 0.02 0.05 0.04 0.02 0.02 0.01 0.01 0.01 0.00 0.00 0.00 0.00 0.00 0.00 0.01 0.01 0.02 0.03 0.04 0.05 0.05 0.06 0.06 0.06 0.04 0.03 0.02 0.02 0.01 0.01 0.01 0.00 0.00 0.00 0.00 0.00 0.00 0.00 0.00
0.08 0.06 0.07 0.03 0.02 0.03 0.03 0.03 0.02 0.01 0.01 0.00 0.00 0.00 0.00 0.00 0.00 0.01 0.01 0.01 0.01 0.02 0.02 0.03 0.03 0.03 0.03 0.02 0.02 0.01 0.01 0.01 0.01 0.01 0.00 0.00 0.00 0.00 0.00 0.00 0.00 0.00 0.00 0.00
0.09 0.09 0.07 0.04 0.03 0.02 0.02 0.02 0.01 0.01 0.00 0.00 0.00 0.00 0.00 0.00 0.01 0.01 0.01 0.01 0.01 0.01 0.02 0.02 0.02 0.02 0.02 0.01 0.01 0.01 0.01 0.01 0.00 0.00 0.00 0.00 0.00 0.00 0.00 0.00 0.00 0.00 0.00 0.00
0.07 0.08 0.05 0.03 0.01 0.01 0.01 0.01 0.01 0.00 0.00 0.00 0.00 0.01 0.01 0.01 0.01 0.01 0.01 0.01 0.01 0.01 0.02 0.01 0.01 0.01 0.01 0.01 0.01 0.01 0.01 0.00 0.00 0.00 0.00 0.00 0.00 0.00 0.00 0.00 0.00 0.00 0.00 0.00
0.05 0.06 0.04 0.01 0.00 0.00 0.00 0.00 0.00 0.00 0.00 0.01 0.01 0.01 0.01 0.01 0.01 0.01 0.01 0.01 0.01 0.01 0.01 0.01 0.01 0.01 0.00 0.00 0.00 0.00 0.00 0.01 0.00 0.00 0.00 0.00 0.00 0.00 0.00 0.00 0.00 0.00 0.00 0.00
0.04 0.05 0.03 0.01 0.00 0.00 0.00 0.00 0.00 0.00 0.01 0.01 0.02 0.02 0.01 0.01 0.01 0.01 0.01 0.01 0.01 0.01 0.01 0.00 0.00 0.00 0.00 0.00 0.00 0.00 0.00 0.00 0.00 0.00 0.00 0.00 0.00 0.00 0.00 0.00 0.00 0.00 0.00 0.00
0.02 0.01 0.01 0.01 0.01 0.01 0.01 0.01 0.01 0.01 0.01 0.01 0.01 0.01 0.00 0.01 0.01 0.01 0.01 0.01 0.01 0.00 0.00 0.00 0.00 0.00 0.00 0.00 0.00 0.00 0.00 0.00 0.00 0.00 0.00 0.00 0.01 0.01 0.01 0.00 0.00 0.00 0.00 0.00
0.01 0.01 0.02 0.02 0.01 0.01 0.01 0.01 0.02 0.01 0.01 0.01 0.01 0.01 0.01 0.01 0.01 0.00 0.00 0.00 0.00 0.00 0.00 0.00 0.00 0.00 0.00 0.00 0.00 0.00 0.00 0.00 0.00 0.00 0.00 0.00 0.01 0.01 0.01 0.01 0.01 0.01 0.00 0.00
0.01 0.02 0.02 0.02 0.01 0.01 0.01 0.01 0.01 0.01 0.01 0.01 0.01 0.01 0.01 0.00 0.00 0.00 0.00 0.00 0.00 0.00 0.00 0.00 0.00 0.00 0.00 0.00 0.00 0.00 0.00 0.00 0.00 0.00 0.00 0.00 0.00 0.00 0.01 0.01 0.01 0.00 0.00 0.00
0.01 0.02 0.02 0.01 0.01 0.01 0.01 0.01 0.00 0.01 0.01 0.01 0.01 0.00 0.00 0.00 0.00 0.00 0.00 0.00 0.00 0.00 0.00 0.00 0.00 0.00 0.00 0.00 0.00 0.00 0.00 0.00 0.00 0.00 0.00 0.00 0.00 0.00 0.00 0.00 0.00 0.00 0.00 0.00
0.01 0.02 0.02 0.01 0.01 0.01 0.01 0.01 0.00 0.01 0.01 0.01 0.01 0.00 0.00 0.00 0.00 0.00 0.00 0.00 0.00 0.00 0.00 0.00 0.00 0.00 0.00 0.00 0.00 0.00 0.00 0.00 0.00 0.00 0.00 0.00 0.00 0.00 0.00 0.00 0.00 0.01 0.01 0.01
0.01 0.01 0.01 0.00 0.00 0.01 0.01 0.01 0.00 0.00 0.00 0.00 0.00 0.00 0.00 0.00 0.00 0.00 0.00 0.00 0.00 0.00 0.00 0.00 0.00 0.00 0.00 0.00 0.00 0.00 0.00 0.00 0.00 0.00 0.00 0.00 0.00 0.00 0.00 0.00 0.00 0.01 0.01 0.02
0.01 0.00 0.00 0.00 0.00 0.00 0.00 0.00 0.00 0.00 0.00 0.00 0.00 0.00 0.00 0.00 0.00 0.00 0.00 0.00 0.00 0.00 0.00 0.00 0.00 0.00 0.00 0.00 0.00 0.00 0.00 0.00 0.00 0.00 0.00 0.00 0.00 0.00 0.00 0.00 0.00 0.00 0.01 0.01
0.00 0.00 0.00 0.00 0.00 0.00 0.00 0.00 0.00 0.00 0.00 0.00 0.00 0.00 0.00 0.00 0.00 0.00 0.00 0.00 0.00 0.00 0.00 0.00 0.00 0.00 0.00 0.00 0.00 0.00 0.00 0.00 0.00 0.00 0.00 0.00 0.00 0.00 0.00 0.00 0.00 0.00 0.00 0.01
0.00 0.00 0.00 0.00 0.00 0.00 0.00 0.00 0.00 0.00 0.00 0.00 0.00 0.00 0.00 0.00 0.00 0.00 0.00 0.00 0.00 0.00 0.00 0.00 0.00 0.00 0.00 0.00 0.00 0.00 0.00 0.00 0.00 0.00 0.00 0.00 0.00 0.00 0.00 0.00 0.00 0.00 0.00 0.01
0.00 0.00 0.00 0.00 0.00 0.00 0.00 0.00 0.00 0.00 0.00 0.00 0.00 0.00 0.00 0.00 0.00 0.00 0.00 0.00 0.00 0.00 0.00 0.00 0.00 0.00 0.00 0.00 0.00 0.00 0.00 0.00 0.00 0.00 0.00 0.00 0.00 0.00 0.00 0.00 0.00 0.00 0.00 0.00
0.00 0.00 0.00 0.00 0.00 0.00 0.00 0.00 0.00 0.00 0.00 0.00 0.00 0.00 0.00 0.00 0.00 0.00 0.00 0.00 0.00 0.00 0.00 0.00 0.00 0.00 0.00 0.00 0.00 0.00 0.00 0.00 0.00 0.00 0.00 0.00 0.00 0.00 0.00 0.00 0.00 0.00 0.00 0.00
0.00 0.00 0.00 0.00 0.00 0.00 0.00 0.00 0.00 0.00 0.00 0.00 0.00 0.00 0.00 0.00 0.00 0.00 0.00 0.00 0.00 0.00 0.00 0.00 0.00 0.00 0.00 0.00 0.00 0.00 0.00 0.00 0.00 0.00 0.00 0.00 0.00 0.00 0.00 0.00 0.00 0.00 0.00 0.00
0.00 0.00 0.00 0.00 0.00 0.00 0.00 0.00 0.00 0.00 0.00 0.00 0.00 0.00 0.00 0.00 0.00 0.00 0.00 0.00 0.00 0.00 0.00 0.00 0.00 0.00 0.00 0.00 0.00 0.00 0.00 0.00 0.00 0.00 0.00 0.00 0.00 0.00 0.00 0.00 0.00 0.00 0.00 0.00
0.00 0.00 0.00 0.00 0.00 0.00 0.00 0.00 0.00 0.00 0.00 0.00 0.00 0.00 0.00 0.00 0.00 0.00 0.00 0.00 0.00 0.00 0.00 0.00 0.00 0.00 0.00 0.00 0.00 0.00 0.00 0.00 0.00 0.00 0.00 0.00 0.00 0.00 0.00 0.00 0.00 0.00 0.00 0.00
0.01 0.00 0.00 0.00 0.00 0.00 0.00 0.00 0.00 0.00 0.00 0.00 0.00 0.00 0.00 0.00 0.00 0.00 0.00 0.00 0.00 0.00 0.00 0.00 0.00 0.00 0.00 0.00 0.00 0.00 0.00 0.00 0.00 0.00 0.00 0.00 0.00 0.00 0.00 0.00 0.00 0.00 0.00 0.00
MSLP
1010.17 1010.11 1010.14 1010.28 1010.53 1010.89 1011.32 1011.79 1012.25 1012.69 1013.06 1013.36 1013.60 1013.79 1013.97 1014.14 1014.35 1014.61 1014.91 1015.26 1015.65 1016.05 1016.46 1016.86 1017.24 1017.61 1017.97 1018.30 1018.61 1018.91 1019.18 1019.41 1019.61 1019.76 1019.88 1019.97 1020.04 1020.10 1020.18 1020.28 1020.40 1020.54 1020.70 1020.85
1011.13 1011.06 1011.03 1011.06 1011.15 1011.33 1011.59 1011.93 1012.33 1012.77 1013.22 1013.68 1014.12 1014.53 1014.92 1015.28 1015.61 1015.92 1016.21 1016.49 1016.77 1017.05 1017.34 1017.64 1017.96 1018.29 1018.63 1018.97 1019.31 1019.63 1019.91 1020.15 1020.34 1020.47 1020.56 1020.62 1020.66 1020.70 1020.75 1020.82 1020.91 1021.01 1021.12 1021.23
1012.02 1011.97 1011.92 1011.87 1011.87 1011.92 1012.07 1012.31 1012.66 1013.10 1013.62 1014.19 1014.79 1015.37 1015.92 1016.42 1016.84 1017.20 1017.48 1017.71 1017.90 1018.08 1018.26 1018.47 1018.71 1018.99 1019.30 1019.63 1019.96 1020.27 1020.55 1020.77 1020.93 1021.04 1021.10 1021.13 1021.15 1021.17 1021.20 1021.25 1021.32 1021.39 1021.46 1021.51
1012.80 1012.78 1012.73 1012.66 1012.60 1012.59 1012.67 1012.86 1013.18 1013.62 1014.18 1014.83 1015.53 1016.24 1016.90 1017.49 1017.98 1018.37 1018.65 1018.84 1018.97 1019.07 1019.17 1019.30 1019.48 1019.70 1019.97 1020.26 1020.55 1020.83 1021.07 1021.25 1021.38 1021.46 1021.50 1021.51 1021.52 1021.53 1021.56 1021.61 1021.65 1021.70 1021.73 1021.73
1013.43 1013.45 1013.42 1013.36 1013.30 1013.28 1013.33 1013.49 1013.80 1014.24 1014.82 1015.51 1016.27 1017.03 1017.76 1018.41 1018.95 1019.35 1019.63 1019.81 1019.90 1019.95 1020.00 1020.08 1020.19 1020.36 1020.57 1020.81 1021.06 1021.28 1021.48 1021.62 1021.72 1021.77 1021.80 1021.80 1021.81 1021.83 1021.86 1021.91 1021.95 1021.97 1021.96 1021.90
1013.93 1013.98 1013.99 1013.96 1013.93 1013.92 1013.98 1014.15 1014.44 1014.88 1015.46 1016.15 1016.91 1017.70 1018.45 1019.12 1019.68 1020.10 1020.39 1020.56 1020.65 1020.68 1020.70 1020.74 1020.81 1020.93 1021.09 1021.27 1021.46 1021.64 1021.79 1021.90 1021.97 1022.01 1022.03 1022.05 1022.07 1022.10 1022.15 1022.20 1022.23 1022.23 1022.18 1022.06
1014.31 1014.39 1014.44 1014.47 1014.48 1014.51 1014.60 1014.77 1015.06 1015.49 1016.04 1016.70 1017.44 1018.21 1018.94 1019.61 1020.17 1020.60 1020.90 1021.09 1021.18 1021.22 1021.23 1021.25 1021.30 1021.38 1021.49 1021.63 1021.77 1021.90 1022.01 1022.10 1022.16 1022.20 1022.24 1022.28 1022.33 1022.39 1022.45 1022.50 1022.52 1022.49 1022.40 1022.23
1014.61 1014.72 1014.82 1014.90 1014.97 1015.06 1015.18 1015.37 1015.65 1016.05 1016.57 1017.18 1017.86 1018.58 1019.28 1019.92 1020.47 1020.90 1021.22 1021.42 1021.53 1021.58 1021.60 1021.62 1021.65 1021.70 1021.77 1021.87 1021.97 1022.08 1022.17 1022.25 1022.32 1022.38 1022.44 1022.52 1022.60 1022.69 1022.76 1022.82 1022.83 1022.77 1022.64 1022.42
1014.87 1015.01 1015.16 1015.30 1015.44 1015.57 1015.73 1015.94 1016.22 1016.59 1017.05 1017.61 1018.22 1018.87 1019.52 1020.12 1020.64 1021.07 1021.40 1021.62 1021.75 1021.82 1021.85 1021.86 1021.87 1021.90 1021.95 1022.02 1022.09 1022.18 1022.27 1022.36 1022.45 1022.54 1022.65 1022.76 1022.88 1022.99 1023.09 1023.14 1023.13 1023.05 1022.88 1022.61
1015.09 1015.28 1015.49 1015.69 1015.89 1016.09 1016.29 1016.51 1016.79 1017.12 1017.53 1018.02 1018.56 1019.14 1019.73 1020.28 1020.78 1021.19 1021.52 1021.75 1021.89 1021.97 1022.00 1022.01 1022.01 1022.02 1022.04 1022.08 1022.15 1022.23 1022.32 1022.43 1022.56 1022.69 1022.84 1023.00 1023.15 1023.29 1023.39 1023.44 1023.41 1023.30 1023.10 1022.79
1015.28 1015.53 1015.80 1016.07 1016.34 1016.59 1016.83 1017.07 1017.34 1017.65 1018.02 1018.45 1018.92 1019.43 1019.96 1020.46 1020.93 1021.32 1021.64 1021.87 1022.01 1022.09 1022.11 1022.11 1022.09 1022.07 1022.07 1022.09 1022.14 1022.23 1022.34 1022.48 1022.64 1022.82 1023.01 1023.20 1023.38 1023.53 1023.64 1023.68 1023.64 1023.50 1023.27 1022.95
1015.44 1015.74 1016.07 1016.42 1016.75 1017.05 1017.33 1017.60 1017.87 1018.17 1018.50 1018.87 1019.30 1019.75 1020.22 1020.68 1021.11 1021.48 1021.78 1022.00 1022.13 1022.20 1022.20 1022.17 1022.13 1022.08 1022.05 1022.06 1022.11 1022.19 1022.32 1022.49 1022.69 1022.91 1023.14 1023.36 1023.56 1023.72 1023.82 1023.84 1023.79 1023.63 1023.39 1023.05
1015.52 1015.89 1016.29 1016.69 1017.08 1017.44 1017.76 1018.05 1018.33 1018.62 1018.93 1019.27 1019.65 1020.07 1020.50 1020.92 1021.32 1021.67 1021.95 1022.15 1022.26 1022.30 1022.29 1022.23 1022.15 1022.07 1022.02 1022.01 1022.05 1022.15 1022.29 1022.49 1022.72 1022.97 1023.22 1023.46 1023.67 1023.83 1023.92 1023.93 1023.86 1023.69 1023.44 1023.11
1015.52 1015.95 1016.41 1016.87 1017.31 1017.71 1018.07 1018.39 1018.68 1018.97 1019.27 1019.59 1019.95 1020.34 1020.74 1021.14 1021.52 1021.85 1022.11 1022.29 1022.38 1022.40 1022.36 1022.27 1022.17 1022.06 1021.99 1021.97 1022.01 1022.11 1022.27 1022.48 1022.73 1023.00 1023.27 1023.51 1023.72 1023.87 1023.95 1023.94 1023.86 1023.69 1023.44 1023.13
1015.43 1015.91 1016.42 1016.93 1017.42 1017.85 1018.24 1018.58 1018.89 1019.19 1019.49 1019.81 1020.16 1020.53 1020.93 1021.31 1021.68 1021.99 1022.24 1022.41 1022.49 1022.49 1022.42 1022.32 1022.19 1022.07 1021.99 1021.95 1021.99 1022.09 1022.26 1022.48 1022.74 1023.02 1023.29 1023.54 1023.73 1023.87 1023.93 1023.91 1023.81 1023.64 1023.41 1023.11
1015.27 1015.79 1016.34 1016.89 1017.40 1017.87 1018.29 1018.65 1018.97 1019.29 1019.59 1019.92 1020.28 1020.65 1021.04 1021.43 1021.79 1022.10 1022.35 1022.51 1022.58 1022.57 1022.49 1022.38 1022.24 1022.11 1022.02 1021.98 1022.01 1022.12 1022.29 1022.52 1022.78 1023.05 1023.32 1023.55 1023.73 1023.85 1023.89 1023.86 1023.76 1023.59 1023.37 1023.10
1015.07 1015.63 1016.21 1016.78 1017.32 1017.81 1018.24 1018.62 1018.97 1019.29 1019.62 1019.96 1020.33 1020.71 1021.11 1021.51 1021.88 1022.19 1022.44 1022.60 1022.68 1022.67 1022.59 1022.47 1022.33 1022.20 1022.11 1022.07 1022.10 1022.20 1022.37 1022.59 1022.84 1023.11 1023.36 1023.57 1023.73 1023.83 1023.86 1023.81 1023.71 1023.55 1023.35 1023.11
1014.90 1015.49 1016.09 1016.68 1017.23 1017.73 1018.18 1018.58 1018.94 1019.28 1019.63 1019.99 1020.37 1020.77 1021.19 1021.60 1021.97 1022.30 1022.56 1022.73 1022.81 1022.81 1022.74 1022.62 1022.49 1022.36 1022.26 1022.22 1022.25 1022.34 1022.50 1022.71 1022.94 1023.19 1023.42 1023.61 1023.75 1023.83 1023.85 1023.81 1023.71 1023.57 1023.38 1023.18
1014.82 1015.43 1016.05 1016.65 1017.21 1017.71 1018.17 1018.57 1018.95 1019.31 1019.67 1020.05 1020.46 1020.88 1021.31 1021.73 1022.13 1022.46 1022.73 1022.91 1023.00 1023.01 1022.95 1022.84 1022.71 1022.58 1022.48 1022.44 1022.45 1022.54 1022.68 1022.86 1023.07 1023.30 1023.50 1023.68 1023.81 1023.88 1023.90 1023.86 1023.77 1023.65 1023.49 1023.32
1014.88 1015.50 1016.13 1016.73 1017.29 1017.80 1018.25 1018.67 1019.05 1019.43 1019.81 1020.21 1020.63 1021.07 1021.51 1021.95 1022.35 1022.69 1022.96 1023.15 1023.25 1023.26 1023.20 1023.10 1022.97 1022.84 1022.74 1022.69 1022.69 1022.76 1022.87 1023.04 1023.23 1023.42 1023.61 1023.78 1023.90 1023.97 1024.00 1023.98 1023.91 1023.82 1023.69 1023.55
1015.08 1015.73 1016.36 1016.95 1017.51 1018.00 1018.45 1018.87 1019.26 1019.65 1020.04 1020.45 1020.88 1021.33 1021.78 1022.22 1022.62 1022.96 1023.23 1023.42 1023.51 1023.53 1023.47 1023.37 1023.24 1023.12 1023.01 1022.95 1022.94 1022.98 1023.08 1023.22 1023.39 1023.57 1023.75 1023.91 1024.03 1024.12 1024.16 1024.17 1024.13 1024.07 1023.98 1023.87
1015.42 1016.07 1016.70 1017.28 1017.82 1018.30 1018.74 1019.15 1019.54 1019.93 1020.33 1020.75 1021.18 1021.63 1022.08 1022.51 1022.90 1023.23 1023.49 1023.67 1023.76 1023.77 1023.72 1023.62 1023.49 1023.37 1023.26 1023.19 1023.18 1023.21 1023.29 1023.42 1023.58 1023.75 1023.92 1024.08 1024.22 1024.32 1024.40 1024.43 1024.44 1024.41 1024.36 1024.29
1015.85 1016.49 1017.10 1017.67 1018.18 1018.64 1019.07 1019.46 1019.85 1020.23 1020.62 1021.03 1021.46 1021.90 1022.33 1022.75 1023.12 1023.44 1023.68 1023.85 1023.94 1023.95 1023.90 1023.81 1023.69 1023.57 1023.48 1023.42 1023.40 1023.43 1023.51 1023.64 1023.79 1023.97 1024.14 1024.31 1024.47 1024.60 1024.70 1024.77 1024.81 1024.83 1024.82 1024.77
1016.28 1016.91 1017.50 1018.04 1018.52 1018.96 1019.36 1019.74 1020.11 1020.48 1020.86 1021.26 1021.67 1022.09 1022.50 1022.89 1023.24 1023.53 1023.76 1023.92 1024.00 1024.02 1023.98 1023.91 1023.82 1023.73 1023.65 1023.62 1023.62 1023.67 1023.76 1023.89 1024.06 1024.24 1024.43 1024.61 1024.78 1024.94 1025.07 1025.17 1025.25 1025.31 1025.33 1025.32
1016.66 1017.27 1017.83 1018.33 1018.79 1019.20 1019.58 1019.93 1020.28 1020.64 1021.00 1021.38 1021.77 1022.16 1022.54 1022.90 1023.23 1023.50 1023.72 1023.87 1023.96 1023.99 1023.98 1023.94 1023.89 1023.84 1023.81 1023.82 1023.86 1023.94 1024.06 1024.21 1024.39 1024.59 1024.79 1024.99 1025.18 1025.35 1025.50 1025.63 1025.74 1025.82 1025.87 1025.89
1016.92 1017.50 1018.03 1018.51 1018.94 1019.32 1019.68 1020.01 1020.35 1020.68 1021.03 1021.38 1021.75 1022.11 1022.47 1022.80 1023.10 1023.35 1023.56 1023.72 1023.82 1023.89 1023.92 1023.93 1023.94 1023.95 1023.99 1024.05 1024.14 1024.27 1024.43 1024.61 1024.81 1025.02 1025.23 1025.44 1025.63 1025.81 1025.98 1026.12 1026.24 1026.34 1026.41 1026.45
1017.04 1017.59 1018.10 1018.55 1018.95 1019.32 1019.66 1019.99 1020.31 1020.63 1020.96 1021.29 1021.64 1021.97 1022.30 1022.61 1022.89 1023.14 1023.34 1023.51 1023.65 1023.75 1023.84 1023.92 1024.00 1024.09 1024.19 1024.33 1024.48 1024.66 1024.86 1025.07 1025.29 1025.52 1025.73 1025.94 1026.13 1026.31 1026.47 1026.61 1026.73 1026.84 1026.92 1026.98
Thickness
5657 5667 5672 5673 5676 5679 5673 5668 5655 5650 5645 5641 5643 5646 5649 5650 5649 5647 5642 5637 5631 5625 5618 5612 5606 5601 5596 5590 5584 5579 5573 5566 5558 5552 5547 5542 5536 5530 5524 5519 5513 5507 5501 5494
5643 5658 5662 5662 5667 5670 5665 5662 5653 5644 5634 5635 5633 5635 5634 5634 5634 5631 5625 5620 5614 5607 5601 5594 5588 5583 5577 5570 5563 5558 5552 5545 5539 5533 5528 5522 5516 5510 5505 5500 5495 5490 5484 5478
5621 5638 5645 5633 5644 5649 5644 5646 5646 5636 5629 5623 5620 5618 5615 5614 5614 5611 5607 5601 5595 5589 5582 5575 5569 5563 5557 5550 5545 5539 5533 5526 5521 5515 5509 5504 5499 5493 5488 5483 5478 5473 5468 5463
5606 5616 5607 5611 5631 5633 5627 5624 5630 5625 5617 5610 5605 5599 5595 5593 5592 5589 5585 5580 5574 5568 5562 5556 5550 5544 5538 5532 5527 5521 5515 5509 5504 5498 5492 5487 5482 5477 5472 5468 5463 5458 5453 5448
5590 5594 5599 5609 5615 5617 5612 5602 5608 5606 5600 5594 5590 5588 5579 5574 5571 5568 5564 5559 5554 5549 5544 5539 5533 5527 5521 5515 5509 5504 5498 5493 5488 5482 5477 5472 5467 5463 5458 5453 5448 5444 5439 5435
5582 5583 5583 5590 5605 5614 5605 5587 5594 5593 5588 5585 5583 5579 5567 5558 5554 5550 5546 5542 5537 5532 5527 5522 5516 5511 5505 5499 5494 5489 5484 5479 5474 5469 5464 5459 5454 5449 5444 5439 5434 5430 5426 5422
5573 5571 5577 5584 5597 5604 5586 5578 5581 5581 5578 5575 5571 5565 5553 5545 5539 5535 5531 5527 5522 5517 5511 5506 5501 5496 5491 5486 5481 5476 5472 5467 5462 5457 5451 5446 5440 5435 5430 5425 5420 5416 5412 5409
5566 5562 5565 5576 5582 5576 5570 5571 5569 5566 5563 5560 5554 5546 5539 5532 5527 5522 5517 5512 5508 5502 5497 5493 5489 5484 5478 5474 5470 5466 5461 5455 5450 5445 5440 5434 5427 5421 5416 5411 5406 5401 5398 5396
5559 5556 5559 5564 5564 5564 5563 5560 5557 5554 5551 5549 5542 5534 5527 5520 5514 5509 5504 5499 5494 5490 5485 5481 5478 5473 5468 5464 5461 5456 5450 5443 5438 5433 5427 5421 5414 5408 5402 5397 5392 5389 5386 5384
5552 5551 5551 5552 5553 5553 5553 5551 5549 5546 5541 5537 5529 5521 5514 5508 5502 5497 5493 5489 5484 5480 5476 5472 5469 5465 5461 5458 5453 5447 5440 5433 5427 5421 5414 5408 5402 5396 5390 5385 5381 5379 5377 5375
5546 5544 5542 5541 5541 5541 5540 5539 5536 5533 5529 5524 5518 5510 5504 5498 5493 5489 5486 5481 5477 5473 5469 5465 5462 5459 5455 5451 5445 5438 5431 5424 5418 5411 5404 5397 5392 5386 5382 5378 5375 5372 5370 5369
5542 5543 5537 5533 5532 5533 5530 5527 5524 5521 5516 5512 5508 5502 5496 5491 5487 5484 5480 5476 5471 5467 5464 5460 5456 5452 5448 5443 5437 5430 5422 5415 5408 5401 5395 5389 5383 5378 5376 5373 5371 5369 5368 5367
5542 5539 5533 5529 5526 5524 5521 5518 5515 5512 5508 5503 5499 5495 5491 5486 5483 5480 5477 5472 5467 5463 5459 5455 5450 5446 5441 5436 5429 5422 5414 5407 5400 5394 5388 5383 5378 5374 5370 5368 5367 5366 5365 5365
5537 5532 5525 5522 5518 5516 5514 5510 5507 5504 5500 5497 5494 5490 5487 5484 5481 5478 5474 5470 5465 5460 5455 5450 5446 5440 5435 5430 5422 5415 5407 5401 5394 5387 5382 5378 5374 5370 5366 5364 5362 5361 5363 5363
5531 5529 5522 5517 5513 5510 5507 5504 5501 5497 5495 5492 5490 5487 5485 5481 5478 5475 5472 5468 5462 5457 5452 5447 5442 5436 5430 5424 5417 5409 5401 5394 5388 5382 5378 5374 5370 5367 5364 5362 5360 5359 5359 5361
5526 5523 5519 5514 5510 5506 5503 5500 5496 5493 5492 5490 5487 5485 5483 5480 5476 5473 5469 5464 5458 5452 5448 5443 5437 5431 5426 5420 5413 5405 5398 5392 5386 5379 5375 5371 5368 5365 5362 5360 5359 5358 5358 5359
5522 5517 5515 5511 5507 5504 5500 5497 5494 5492 5490 5487 5485 5483 5480 5476 5472 5467 5464 5460 5455 5449 5444 5439 5434 5429 5423 5417 5410 5402 5395 5389 5384 5378 5373 5370 5367 5364 5362 5360 5359 5359 5359 5360
5524 5520 5516 5512 5508 5504 5500 5498 5495 5491 5489 5487 5485 5481 5478 5473 5468 5464 5460 5456 5451 5447 5442 5437 5432 5427 5421 5415 5408 5401 5394 5388 5382 5376 5373 5370 5367 5365 5363 5362 5361 5361 5361 5363
5523 5519 5514 5511 5507 5504 5500 5497 5494 5491 5489 5487 5484 5479 5476 5472 5468 5463 5459 5454 5449 5444 5440 5435 5430 5424 5418 5412 5407 5400 5393 5387 5381 5377 5374 5372 5369 5367 5365 5364 5363 5363 5364 5365
5522 5518 5514 5510 5506 5502 5499 5496 5493 5491 5488 5486 5482 5478 5474 5471 5468 5464 5458 5453 5448 5443 5439 5434 5428 5422 5416 5411 5406 5399 5393 5387 5381 5377 5375 5372 5370 5368 5367 5366 5366 5366 5367 5368
5520 5517 5513 5509 5504 5502 5498 5496 5493 5489 5487 5485 5481 5478 5474 5471 5468 5464 5458 5452 5449 5446 5441 5435 5428 5422 5416 5411 5406 5399 5393 5388 5383 5380 5377 5375 5373 5371 5370 5370 5370 5370 5370 5371
5517 5514 5510 5507 5503 5498 5496 5494 5492 5489 5487 5484 5482 5479 5475 5471 5468 5464 5460 5455 5452 5448 5442 5435 5429 5424 5419 5413 5407 5401 5395 5391 5386 5383 5380 5378 5377 5375 5374 5374 5373 5373 5373 5374
5514 5511 5508 5504 5500 5496 5494 5493 5491 5489 5487 5485 5482 5479 5476 5472 5469 5465 5460 5458 5455 5451 5444 5438 5433 5427 5422 5415 5409 5404 5399 5395 5391 5388 5386 5384 5382 5380 5379 5378 5377 5377 5376 5376
5511 5508 5504 5501 5499 5495 5492 5491 5490 5489 5487 5486 5484 5482 5478 5473 5469 5468 5466 5464 5460 5455 5448 5443 5438 5432 5426 5419 5413 5408 5404 5400 5397 5394 5392 5390 5388 5386 5384 5383 5381 5380 5379 5379
5509 5506 5502 5498 5495 5492 5491 5490 5489 5488 5487 5485 5484 5483 5481 5479 5475 5471 5469 5467 5464 5459 5454 5449 5444 5437 5431 5424 5419 5414 5410 5406 5404 5401 5398 5395 5393 5391 5389 5387 5385 5383 5382 5381
5506 5502 5499 5497 5493 5491 5490 5489 5487 5486 5485 5484 5482 5482 5481 5480 5478 5475 5472 5470 5468 5464 5459 5453 5448 5443 5437 5431 5426 5421 5417 5414 5410 5407 5404 5401 5399 5396 5393 5391 5389 5387 5385 5384
5503 5500 5496 5494 5493 5492 5490 5489 5487 5487 5486 5485 5483 5482 5482 5481 5479 5477 5476 5473 5471 5467 5463 5458 5453 5448 5443 5438 5433 5429 5425 5421 5418 5415 5411 5408 5405 5402 5399 5396 5393 5391 5389 5388